Content
SEND FEEDBACK

Daily
Averages
Monthly
Summary
United States of America

ST. LOUIS, MISSOURI


Home > North America > United States > Missouri
Elevation: 535 feet     Latitude: 38 45N     Longitude: 090 22W

WEATHER
 
SELECT A DAY
Number of Records: 196,619;   Date Range: 1/1/95 - 9/16/14
 
SHARE

PRINT THIS DATA

[ ← Previous Day ]
WEATHER ALMANAC - FEBRUARY 19, 2013
[ Next Day → ]
[ °C ]   °F
Weather ElementAverageHighLow
Temperature29.2 °F36 °F (2:54 pm)23 °F (10:54 pm)
Dewpoint13.5 °F21 °F (1:54 am)8.1 °F (3:54 pm)
Humidity52.9 %67 % (1:54 am)33 % (3:54 pm)
Barometer30.17 in30.34 in (9:54 pm)29.98 in (1:54 am)
Wind Speed13.6 mph23 mph (3:54 pm)
Wind Gust31.1 mph (10:54 am)
Weather ElementAverage
Visibility9.6 mi
Wind DirectionWNW (288.7 °)

Weather ElementTotal
Precipitation---
Heating Degree Days35.5 (Base 65)
Averaged from 23 records on February 19, 2013
WEATHER CONDITIONS BREAKOUT
WIND DIRECTION BREAKOUT
WEATHER BY HOUR - FEBRUARY 19, 2013
[ °C ]   °F
Local TimeTemperatureDewpointHumidityBarometerVisibilityWind DirectionWind SpeedGust SpeedPrecipitationEventsConditions
1:54 AM30.9 °F21.0 °F67 %29.98 in10.0 miWest (270°)12.7 mphClear
2:54 AM28.9 °F19.0 °F67 %29.99 in10.0 miWest (260°)13.8 mph21.9 mphClear
3:54 AM28.0 °F18.0 °F66 %30.00 in10.0 miWest (260°)12.7 mphClear
4:54 AM28.0 °F16.0 °F61 %30.02 in10.0 miWest (270°)13.8 mph20.7 mphClear
5:54 AM27.0 °F14.0 °F58 %30.05 in10.0 miWest (270°)15.0 mph28.8 mphClear
6:54 AM25.0 °F12.9 °F60 %30.08 in10.0 miWNW (290°)13.8 mphClear
7:54 AM26.1 °F12.9 °F58 %30.11 in10.0 miWest (280°)12.7 mphScattered Clouds
8:54 AM28.0 °F14.0 °F56 %30.13 in10.0 miWNW (300°)19.6 mph26.5 mphScattered Clouds
9:54 AM30.0 °F16.0 °F56 %30.15 in10.0 miWNW (290°)16.1 mph26.5 mphScattered Clouds
10:54 AM30.9 °F14.0 °F50 %30.18 in10.0 miWNW (290°)16.1 mph31.1 mphClear
11:13 AM32.0 °F15.8 °F51 %30.15 in1.5 miWNW (300°)18.4 mph25.3 mphClear
11:28 AM32.0 °F15.8 °F51 %30.15 in10.0 miWNW (300°)16.1 mphClear
12:54 PM33.1 °F14.0 °F46 %30.19 in10.0 miNW (310°)16.1 mph25.3 mphPartly Cloudy
1:54 PM35.1 °F16.0 °F46 %30.19 in10.0 miNW (320°)18.4 mph24.2 mphPartly Cloudy
2:54 PM36.0 °F10.9 °F36 %30.20 in10.0 miWNW (290°)17.3 mph27.6 mphPartly Cloudy
3:54 PM35.1 °F8.1 °F33 %30.22 in10.0 miNW (310°)23.0 mph31.1 mphClear
4:54 PM33.1 °F8.1 °F35 %30.23 in10.0 miWNW (290°)15.0 mph24.2 mphClear
6:54 PM28.0 °F10.9 °F49 %30.27 in10.0 miNW (310°)6.9 mphClear
7:54 PM27.0 °F10.9 °F51 %30.29 in10.0 miWNW (300°)6.9 mphClear
8:54 PM26.1 °F10.9 °F53 %30.31 in10.0 miWest (280°)8.1 mphClear
9:54 PM24.1 °F10.9 °F57 %30.34 in10.0 miWest (270°)5.8 mphClear
10:54 PM23.0 °F10.9 °F60 %30.33 in10.0 miWNW (290°)6.9 mphClear
11:54 PM24.8 °F8.6 °F50 %30.31 in10.0 miWNW (290°)8.1 mphClear
Hourly data recorded from KSUS, located miles away from St. Louis, Missouri







STORIES FROM OUR PARTNERS